OpenBCM V1.08-5-g2f4a (Linux)

Packet Radio Mailbox

IZ3LSV

[San Dona' di P. JN]

 Login: GUEST





  
CX2SA  > KEPS     31.08.12 04:00l 95 Lines 2465 Bytes #999 (0) @ WW
BID : ORB12243.O
Read: GUEST
Subj: Orbital Elements  12243.OSCAR
Path: IZ3LSV<IR1UAW<IK1NHL<CX2SA
Sent: 120831/0245Z @:CX2SA.SAL.URY.SA #:832 [Salto] FBB7.00e $:ORB12243.O
From: CX2SA@CX2SA.SAL.URY.SA
To  : KEPS@AMSAT


HR AMSAT ORBITAL ELEMENTS FOR OSCAR SATELLITES
FROM WA5QGD FORT WORTH,TX August 30, 2012
Send SUBSCRIBE KEPS/UNSUBSCRIBE KEPS to majordomo@amsat.org only
BID: ORB12243.O
TO ALL RADIO AMATEURS BT

Satellite: AO-07
Catalog number: 07530
Epoch time:      12242.56641505
Element set:    0469
Inclination:      101.4078 deg
RA of node:       236.9574 deg
Eccentricity:    0.0011904
Arg of perigee:   137.5592 deg
Mean anomaly:     222.6398 deg
Mean motion:   12.53590897 rev/day
Decay rate:       -2.7e-07 rev/day^2
Epoch rev:           72924
Checksum:              314

Satellite: FO-29
Catalog number: 24278
Epoch time:      12242.83912297
Element set:    0943
Inclination:      098.5855 deg
RA of node:       333.8677 deg
Eccentricity:    0.0350282
Arg of perigee:   198.5435 deg
Mean anomaly:     160.2670 deg
Mean motion:   13.52987825 rev/day
Decay rate:        2.3e-07 rev/day^2
Epoch rev:           79191
Checksum:              349

Satellite: SO-33
Catalog number: 25509
Epoch time:      12242.49405104
Element set:     310
Inclination:      031.4310 deg
RA of node:       278.8254 deg
Eccentricity:    0.0352008
Arg of perigee:   124.8664 deg
Mean anomaly:     238.5568 deg
Mean motion:   14.28803163 rev/day
Decay rate:       1.92e-06 rev/day^2
Epoch rev:           72314
Checksum:              278

Satellite: RS-22
Catalog number: 27939
Epoch time:      12243.76522293
Element set:     678
Inclination:      097.8077 deg
RA of node:       080.7436 deg
Eccentricity:    0.0014233
Arg of perigee:   032.7286 deg
Mean anomaly:     327.4802 deg
Mean motion:   14.64106037 rev/day
Decay rate:       3.42e-06 rev/day^2
Epoch rev:           47679
Checksum:              320

Satellite: VO-52
Catalog number: 28650
Epoch time:      12242.66452947
Element set:    0195
Inclination:      097.5933 deg
RA of node:       270.0162 deg
Eccentricity:    0.0026663
Arg of perigee:   157.0571 deg
Mean anomaly:     203.1815 deg
Mean motion:   14.83124546 rev/day
Decay rate:      1.219e-05 rev/day^2
Epoch rev:           39586
Checksum:              311

Satellite: HO-68
Catalog number: 36122
Epoch time:      12243.70264519
Element set:     785
Inclination:      100.3543 deg
RA of node:       301.5237 deg
Eccentricity:    0.0007240
Arg of perigee:   301.6637 deg
Mean anomaly:     058.3758 deg
Mean motion:   13.16297635 rev/day
Decay rate:       -4.4e-07 rev/day^2
Epoch rev:           13019
Checksum:              283



Read previous mail | Read next mail


 15.12.2025 09:26:05lGo back Go up